<?xml version="1.0" encoding="UTF-8" standalone="no" ?>
<gpx xmlns="http://www.topografix.com/GPX/1/1" xmlns:xsi="http://www.w3.org/2001/XMLSchema-instance" xsi:schemaLocation="http://www.topografix.com/GPX/1/1 http://www.topografix.com/GPX/1/1/gpx.xsd" version="1.1" creator="VisuGPX - https://www.visugpx.com">
  <metadata>
    <name>23/11/2014</name>
    <desc><![CDATA[maison - camon]]></desc>
  </metadata>
  <trk>
    <name><![CDATA[Sequence 1]]></name>
    <trkseg>
      <trkpt lat="49.89905" lon="2.32801">
        <ele>38</ele>
        <time>2014-11-23T08:08:39Z</time>
      </trkpt>
      <trkpt lat="49.89899" lon="2.3281">
        <ele>28</ele>
        <time>2014-11-23T08:08:49Z</time>
      </trkpt>
      <trkpt lat="49.89897" lon="2.32818">
        <ele>28</ele>
        <time>2014-11-23T08:08:54Z</time>
      </trkpt>
      <trkpt lat="49.89894" lon="2.32827">
        <ele>28</ele>
        <time>2014-11-23T08:09:03Z</time>
      </trkpt>
      <trkpt lat="49.89885" lon="2.32849">
        <ele>27</ele>
        <time>2014-11-23T08:09:20Z</time>
      </trkpt>
      <trkpt lat="49.89879" lon="2.32859">
        <ele>22</ele>
        <time>2014-11-23T08:09:29Z</time>
      </trkpt>
      <trkpt lat="49.89873" lon="2.32874">
        <ele>22</ele>
        <time>2014-11-23T08:09:40Z</time>
      </trkpt>
      <trkpt lat="49.89868" lon="2.3289">
        <ele>21</ele>
        <time>2014-11-23T08:09:51Z</time>
      </trkpt>
      <trkpt lat="49.89864" lon="2.32915">
        <ele>24</ele>
        <time>2014-11-23T08:10:05Z</time>
      </trkpt>
      <trkpt lat="49.89863" lon="2.32922">
        <ele>23</ele>
        <time>2014-11-23T08:10:09Z</time>
      </trkpt>
      <trkpt lat="49.89862" lon="2.32943">
        <ele>23</ele>
        <time>2014-11-23T08:10:20Z</time>
      </trkpt>
      <trkpt lat="49.89862" lon="2.32958">
        <ele>14</ele>
        <time>2014-11-23T08:10:31Z</time>
      </trkpt>
      <trkpt lat="49.89861" lon="2.32974">
        <ele>17</ele>
        <time>2014-11-23T08:10:42Z</time>
      </trkpt>
      <trkpt lat="49.89859" lon="2.32994">
        <ele>18</ele>
        <time>2014-11-23T08:10:54Z</time>
      </trkpt>
      <trkpt lat="49.89857" lon="2.33021">
        <ele>21</ele>
        <time>2014-11-23T08:11:09Z</time>
      </trkpt>
      <trkpt lat="49.89856" lon="2.33037">
        <ele>24</ele>
        <time>2014-11-23T08:11:17Z</time>
      </trkpt>
      <trkpt lat="49.89853" lon="2.33065">
        <ele>25</ele>
        <time>2014-11-23T08:11:33Z</time>
      </trkpt>
      <trkpt lat="49.89853" lon="2.33071">
        <ele>25</ele>
        <time>2014-11-23T08:11:37Z</time>
      </trkpt>
      <trkpt lat="49.89851" lon="2.33095">
        <ele>24</ele>
        <time>2014-11-23T08:11:51Z</time>
      </trkpt>
      <trkpt lat="49.89849" lon="2.33112">
        <ele>23</ele>
        <time>2014-11-23T08:12:00Z</time>
      </trkpt>
      <trkpt lat="49.89848" lon="2.3313">
        <ele>23</ele>
        <time>2014-11-23T08:12:10Z</time>
      </trkpt>
      <trkpt lat="49.89847" lon="2.33153">
        <ele>28</ele>
        <time>2014-11-23T08:12:26Z</time>
      </trkpt>
      <trkpt lat="49.89845" lon="2.33178">
        <ele>30</ele>
        <time>2014-11-23T08:12:39Z</time>
      </trkpt>
      <trkpt lat="49.89843" lon="2.33185">
        <ele>27</ele>
        <time>2014-11-23T08:12:44Z</time>
      </trkpt>
      <trkpt lat="49.89834" lon="2.33204">
        <ele>22</ele>
        <time>2014-11-23T08:12:59Z</time>
      </trkpt>
      <trkpt lat="49.89826" lon="2.33217">
        <ele>22</ele>
        <time>2014-11-23T08:13:11Z</time>
      </trkpt>
      <trkpt lat="49.89815" lon="2.33232">
        <ele>25</ele>
        <time>2014-11-23T08:13:23Z</time>
      </trkpt>
      <trkpt lat="49.89811" lon="2.33236">
        <ele>27</ele>
        <time>2014-11-23T08:13:27Z</time>
      </trkpt>
      <trkpt lat="49.89799" lon="2.33244">
        <ele>26</ele>
        <time>2014-11-23T08:13:40Z</time>
      </trkpt>
      <trkpt lat="49.89791" lon="2.3325">
        <ele>28</ele>
        <time>2014-11-23T08:13:49Z</time>
      </trkpt>
      <trkpt lat="49.89778" lon="2.33259">
        <ele>28</ele>
        <time>2014-11-23T08:14:03Z</time>
      </trkpt>
      <trkpt lat="49.89764" lon="2.3327">
        <ele>30</ele>
        <time>2014-11-23T08:14:16Z</time>
      </trkpt>
      <trkpt lat="49.89758" lon="2.33278">
        <ele>33</ele>
        <time>2014-11-23T08:14:22Z</time>
      </trkpt>
      <trkpt lat="49.89747" lon="2.33284">
        <ele>32</ele>
        <time>2014-11-23T08:14:33Z</time>
      </trkpt>
      <trkpt lat="49.89729" lon="2.33295">
        <ele>31</ele>
        <time>2014-11-23T08:14:51Z</time>
      </trkpt>
      <trkpt lat="49.89724" lon="2.33299">
        <ele>34</ele>
        <time>2014-11-23T08:14:55Z</time>
      </trkpt>
      <trkpt lat="49.89703" lon="2.33318">
        <ele>40</ele>
        <time>2014-11-23T08:15:14Z</time>
      </trkpt>
      <trkpt lat="49.89696" lon="2.33323">
        <ele>33</ele>
        <time>2014-11-23T08:15:22Z</time>
      </trkpt>
      <trkpt lat="49.8969" lon="2.33327">
        <ele>35</ele>
        <time>2014-11-23T08:15:28Z</time>
      </trkpt>
      <trkpt lat="49.89672" lon="2.33338">
        <ele>29</ele>
        <time>2014-11-23T08:15:46Z</time>
      </trkpt>
      <trkpt lat="49.89667" lon="2.3334">
        <ele>27</ele>
        <time>2014-11-23T08:15:51Z</time>
      </trkpt>
      <trkpt lat="49.89658" lon="2.33342">
        <ele>28</ele>
        <time>2014-11-23T08:16:02Z</time>
      </trkpt>
      <trkpt lat="49.89649" lon="2.33344">
        <ele>29</ele>
        <time>2014-11-23T08:16:12Z</time>
      </trkpt>
      <trkpt lat="49.89641" lon="2.33352">
        <ele>27</ele>
        <time>2014-11-23T08:16:23Z</time>
      </trkpt>
      <trkpt lat="49.89629" lon="2.33369">
        <ele>28</ele>
        <time>2014-11-23T08:16:37Z</time>
      </trkpt>
      <trkpt lat="49.89619" lon="2.33391">
        <ele>24</ele>
        <time>2014-11-23T08:16:55Z</time>
      </trkpt>
      <trkpt lat="49.89618" lon="2.33392">
        <ele>24</ele>
        <time>2014-11-23T08:16:56Z</time>
      </trkpt>
      <trkpt lat="49.89613" lon="2.33405">
        <ele>26</ele>
        <time>2014-11-23T08:17:07Z</time>
      </trkpt>
      <trkpt lat="49.89607" lon="2.33416">
        <ele>22</ele>
        <time>2014-11-23T08:17:18Z</time>
      </trkpt>
      <trkpt lat="49.89597" lon="2.33441">
        <ele>23</ele>
        <time>2014-11-23T08:17:36Z</time>
      </trkpt>
      <trkpt lat="49.89589" lon="2.33452">
        <ele>26</ele>
        <time>2014-11-23T08:17:44Z</time>
      </trkpt>
      <trkpt lat="49.89583" lon="2.33464">
        <ele>23</ele>
        <time>2014-11-23T08:17:52Z</time>
      </trkpt>
      <trkpt lat="49.89577" lon="2.33482">
        <ele>20</ele>
        <time>2014-11-23T08:18:05Z</time>
      </trkpt>
      <trkpt lat="49.89569" lon="2.33501">
        <ele>15</ele>
        <time>2014-11-23T08:18:20Z</time>
      </trkpt>
      <trkpt lat="49.89562" lon="2.33511">
        <ele>16</ele>
        <time>2014-11-23T08:18:29Z</time>
      </trkpt>
      <trkpt lat="49.89555" lon="2.33522">
        <ele>21</ele>
        <time>2014-11-23T08:18:37Z</time>
      </trkpt>
      <trkpt lat="49.89542" lon="2.33546">
        <ele>22</ele>
        <time>2014-11-23T08:18:54Z</time>
      </trkpt>
      <trkpt lat="49.89539" lon="2.33552">
        <ele>22</ele>
        <time>2014-11-23T08:18:58Z</time>
      </trkpt>
      <trkpt lat="49.89531" lon="2.33564">
        <ele>21</ele>
        <time>2014-11-23T08:19:09Z</time>
      </trkpt>
      <trkpt lat="49.89522" lon="2.33576">
        <ele>18</ele>
        <time>2014-11-23T08:19:20Z</time>
      </trkpt>
      <trkpt lat="49.89511" lon="2.33595">
        <ele>20</ele>
        <time>2014-11-23T08:19:38Z</time>
      </trkpt>
      <trkpt lat="49.89507" lon="2.33599">
        <ele>19</ele>
        <time>2014-11-23T08:19:43Z</time>
      </trkpt>
      <trkpt lat="49.895" lon="2.33607">
        <ele>18</ele>
        <time>2014-11-23T08:19:52Z</time>
      </trkpt>
      <trkpt lat="49.89491" lon="2.3362">
        <ele>15</ele>
        <time>2014-11-23T08:20:03Z</time>
      </trkpt>
      <trkpt lat="49.89481" lon="2.33639">
        <ele>16</ele>
        <time>2014-11-23T08:20:19Z</time>
      </trkpt>
      <trkpt lat="49.89476" lon="2.33648">
        <ele>18</ele>
        <time>2014-11-23T08:20:26Z</time>
      </trkpt>
      <trkpt lat="49.89464" lon="2.33665">
        <ele>17</ele>
        <time>2014-11-23T08:20:43Z</time>
      </trkpt>
      <trkpt lat="49.89458" lon="2.33676">
        <ele>18</ele>
        <time>2014-11-23T08:20:52Z</time>
      </trkpt>
      <trkpt lat="49.89453" lon="2.33686">
        <ele>20</ele>
        <time>2014-11-23T08:21:00Z</time>
      </trkpt>
      <trkpt lat="49.89446" lon="2.33697">
        <ele>20</ele>
        <time>2014-11-23T08:21:10Z</time>
      </trkpt>
      <trkpt lat="49.89437" lon="2.33711">
        <ele>18</ele>
        <time>2014-11-23T08:21:22Z</time>
      </trkpt>
      <trkpt lat="49.89427" lon="2.33723">
        <ele>17</ele>
        <time>2014-11-23T08:21:34Z</time>
      </trkpt>
      <trkpt lat="49.89412" lon="2.33741">
        <ele>18</ele>
        <time>2014-11-23T08:21:51Z</time>
      </trkpt>
      <trkpt lat="49.8941" lon="2.33743">
        <ele>19</ele>
        <time>2014-11-23T08:21:53Z</time>
      </trkpt>
      <trkpt lat="49.8939" lon="2.33762">
        <ele>19</ele>
        <time>2014-11-23T08:22:14Z</time>
      </trkpt>
      <trkpt lat="49.89384" lon="2.33766">
        <ele>21</ele>
        <time>2014-11-23T08:22:21Z</time>
      </trkpt>
      <trkpt lat="49.8938" lon="2.33771">
        <ele>20</ele>
        <time>2014-11-23T08:22:26Z</time>
      </trkpt>
      <trkpt lat="49.89369" lon="2.33777">
        <ele>21</ele>
        <time>2014-11-23T08:22:37Z</time>
      </trkpt>
      <trkpt lat="49.8935" lon="2.33793">
        <ele>23</ele>
        <time>2014-11-23T08:22:57Z</time>
      </trkpt>
      <trkpt lat="49.89347" lon="2.33795">
        <ele>23</ele>
        <time>2014-11-23T08:23:00Z</time>
      </trkpt>
      <trkpt lat="49.89335" lon="2.33804">
        <ele>24</ele>
        <time>2014-11-23T08:23:12Z</time>
      </trkpt>
      <trkpt lat="49.89327" lon="2.33811">
        <ele>23</ele>
        <time>2014-11-23T08:23:21Z</time>
      </trkpt>
      <trkpt lat="49.89314" lon="2.33824">
        <ele>23</ele>
        <time>2014-11-23T08:23:36Z</time>
      </trkpt>
      <trkpt lat="49.89303" lon="2.33834">
        <ele>23</ele>
        <time>2014-11-23T08:23:48Z</time>
      </trkpt>
      <trkpt lat="49.89297" lon="2.3384">
        <ele>24</ele>
        <time>2014-11-23T08:23:55Z</time>
      </trkpt>
      <trkpt lat="49.89286" lon="2.3385">
        <ele>24</ele>
        <time>2014-11-23T08:24:07Z</time>
      </trkpt>
      <trkpt lat="49.89272" lon="2.33866">
        <ele>24</ele>
        <time>2014-11-23T08:24:22Z</time>
      </trkpt>
      <trkpt lat="49.89267" lon="2.33872">
        <ele>23</ele>
        <time>2014-11-23T08:24:28Z</time>
      </trkpt>
      <trkpt lat="49.89258" lon="2.33881">
        <ele>21</ele>
        <time>2014-11-23T08:24:38Z</time>
      </trkpt>
      <trkpt lat="49.89248" lon="2.33892">
        <ele>21</ele>
        <time>2014-11-23T08:24:49Z</time>
      </trkpt>
      <trkpt lat="49.89237" lon="2.33906">
        <ele>19</ele>
        <time>2014-11-23T08:25:02Z</time>
      </trkpt>
      <trkpt lat="49.89229" lon="2.33913">
        <ele>19</ele>
        <time>2014-11-23T08:25:11Z</time>
      </trkpt>
      <trkpt lat="49.89221" lon="2.33918">
        <ele>15</ele>
        <time>2014-11-23T08:25:22Z</time>
      </trkpt>
      <trkpt lat="49.89211" lon="2.33933">
        <ele>12</ele>
        <time>2014-11-23T08:25:35Z</time>
      </trkpt>
      <trkpt lat="49.89201" lon="2.33944">
        <ele>12</ele>
        <time>2014-11-23T08:25:45Z</time>
      </trkpt>
      <trkpt lat="49.89182" lon="2.33969">
        <ele>19</ele>
        <time>2014-11-23T08:26:05Z</time>
      </trkpt>
      <trkpt lat="49.89173" lon="2.33982">
        <ele>20</ele>
        <time>2014-11-23T08:26:15Z</time>
      </trkpt>
      <trkpt lat="49.8917" lon="2.33985">
        <ele>21</ele>
        <time>2014-11-23T08:26:18Z</time>
      </trkpt>
      <trkpt lat="49.89159" lon="2.33995">
        <ele>21</ele>
        <time>2014-11-23T08:26:30Z</time>
      </trkpt>
      <trkpt lat="49.89152" lon="2.34005">
        <ele>22</ele>
        <time>2014-11-23T08:26:39Z</time>
      </trkpt>
      <trkpt lat="49.89142" lon="2.34016">
        <ele>23</ele>
        <time>2014-11-23T08:26:51Z</time>
      </trkpt>
      <trkpt lat="49.89132" lon="2.3403">
        <ele>21</ele>
        <time>2014-11-23T08:27:05Z</time>
      </trkpt>
      <trkpt lat="49.89123" lon="2.34039">
        <ele>21</ele>
        <time>2014-11-23T08:27:14Z</time>
      </trkpt>
      <trkpt lat="49.89116" lon="2.34051">
        <ele>22</ele>
        <time>2014-11-23T08:27:23Z</time>
      </trkpt>
      <trkpt lat="49.89107" lon="2.34063">
        <ele>22</ele>
        <time>2014-11-23T08:27:35Z</time>
      </trkpt>
      <trkpt lat="49.89092" lon="2.34079">
        <ele>22</ele>
        <time>2014-11-23T08:27:51Z</time>
      </trkpt>
      <trkpt lat="49.89087" lon="2.34082">
        <ele>22</ele>
        <time>2014-11-23T08:27:56Z</time>
      </trkpt>
      <trkpt lat="49.89079" lon="2.34096">
        <ele>22</ele>
        <time>2014-11-23T08:28:09Z</time>
      </trkpt>
      <trkpt lat="49.89067" lon="2.34097">
        <ele>24</ele>
        <time>2014-11-23T08:28:19Z</time>
      </trkpt>
      <trkpt lat="49.89055" lon="2.34099">
        <ele>26</ele>
        <time>2014-11-23T08:28:29Z</time>
      </trkpt>
      <trkpt lat="49.89043" lon="2.34101">
        <ele>22</ele>
        <time>2014-11-23T08:28:40Z</time>
      </trkpt>
      <trkpt lat="49.89026" lon="2.34112">
        <ele>18</ele>
        <time>2014-11-23T08:28:58Z</time>
      </trkpt>
      <trkpt lat="49.89016" lon="2.34122">
        <ele>21</ele>
        <time>2014-11-23T08:29:09Z</time>
      </trkpt>
      <trkpt lat="49.89008" lon="2.34125">
        <ele>21</ele>
        <time>2014-11-23T08:29:16Z</time>
      </trkpt>
      <trkpt lat="49.88994" lon="2.34139">
        <ele>21</ele>
        <time>2014-11-23T08:29:30Z</time>
      </trkpt>
      <trkpt lat="49.88989" lon="2.34142">
        <ele>22</ele>
        <time>2014-11-23T08:29:35Z</time>
      </trkpt>
      <trkpt lat="49.88977" lon="2.34146">
        <ele>23</ele>
        <time>2014-11-23T08:29:46Z</time>
      </trkpt>
      <trkpt lat="49.88962" lon="2.34151">
        <ele>21</ele>
        <time>2014-11-23T08:29:59Z</time>
      </trkpt>
      <trkpt lat="49.88953" lon="2.34156">
        <ele>22</ele>
        <time>2014-11-23T08:30:08Z</time>
      </trkpt>
      <trkpt lat="49.88944" lon="2.34169">
        <ele>21</ele>
        <time>2014-11-23T08:30:21Z</time>
      </trkpt>
      <trkpt lat="49.88935" lon="2.34184">
        <ele>18</ele>
        <time>2014-11-23T08:30:33Z</time>
      </trkpt>
      <trkpt lat="49.88927" lon="2.34194">
        <ele>18</ele>
        <time>2014-11-23T08:30:41Z</time>
      </trkpt>
      <trkpt lat="49.88914" lon="2.34211">
        <ele>19</ele>
        <time>2014-11-23T08:30:56Z</time>
      </trkpt>
      <trkpt lat="49.88906" lon="2.34223">
        <ele>20</ele>
        <time>2014-11-23T08:31:06Z</time>
      </trkpt>
      <trkpt lat="49.88896" lon="2.34235">
        <ele>25</ele>
        <time>2014-11-23T08:31:18Z</time>
      </trkpt>
      <trkpt lat="49.88881" lon="2.34247">
        <ele>26</ele>
        <time>2014-11-23T08:31:34Z</time>
      </trkpt>
      <trkpt lat="49.88874" lon="2.34251">
        <ele>26</ele>
        <time>2014-11-23T08:31:40Z</time>
      </trkpt>
      <trkpt lat="49.88863" lon="2.34261">
        <ele>22</ele>
        <time>2014-11-23T08:31:51Z</time>
      </trkpt>
      <trkpt lat="49.88854" lon="2.34266">
        <ele>22</ele>
        <time>2014-11-23T08:32:01Z</time>
      </trkpt>
      <trkpt lat="49.8884" lon="2.34273">
        <ele>25</ele>
        <time>2014-11-23T08:32:14Z</time>
      </trkpt>
      <trkpt lat="49.88828" lon="2.3428">
        <ele>20</ele>
        <time>2014-11-23T08:32:25Z</time>
      </trkpt>
      <trkpt lat="49.88818" lon="2.34286">
        <ele>19</ele>
        <time>2014-11-23T08:32:35Z</time>
      </trkpt>
      <trkpt lat="49.88808" lon="2.34298">
        <ele>15</ele>
        <time>2014-11-23T08:32:47Z</time>
      </trkpt>
      <trkpt lat="49.88795" lon="2.34309">
        <ele>16</ele>
        <time>2014-11-23T08:33:00Z</time>
      </trkpt>
      <trkpt lat="49.88783" lon="2.34315">
        <ele>22</ele>
        <time>2014-11-23T08:33:10Z</time>
      </trkpt>
      <trkpt lat="49.88772" lon="2.34322">
        <ele>26</ele>
        <time>2014-11-23T08:33:21Z</time>
      </trkpt>
      <trkpt lat="49.88767" lon="2.34329">
        <ele>26</ele>
        <time>2014-11-23T08:33:28Z</time>
      </trkpt>
      <trkpt lat="49.88773" lon="2.34336">
        <ele>24</ele>
        <time>2014-11-23T08:33:37Z</time>
      </trkpt>
      <trkpt lat="49.88779" lon="2.34341">
        <ele>27</ele>
        <time>2014-11-23T08:33:49Z</time>
      </trkpt>
      <trkpt lat="49.88779" lon="2.34342">
        <ele>26</ele>
        <time>2014-11-23T08:34:07Z</time>
      </trkpt>
      <trkpt lat="49.88778" lon="2.34349">
        <ele>27</ele>
        <time>2014-11-23T08:34:17Z</time>
      </trkpt>
    </trkseg>
  </trk>
  <trk>
    <name><![CDATA[Sequence 2]]></name>
    <trkseg>
      <trkpt lat="49.88738" lon="2.34379">
        <ele>25</ele>
        <time>2014-11-23T09:03:32Z</time>
      </trkpt>
      <trkpt lat="49.88738" lon="2.34374">
        <ele>27</ele>
        <time>2014-11-23T09:03:42Z</time>
      </trkpt>
      <trkpt lat="49.88745" lon="2.34365">
        <ele>27</ele>
        <time>2014-11-23T09:03:54Z</time>
      </trkpt>
      <trkpt lat="49.88751" lon="2.34357">
        <ele>27</ele>
        <time>2014-11-23T09:04:04Z</time>
      </trkpt>
      <trkpt lat="49.88761" lon="2.34349">
        <ele>28</ele>
        <time>2014-11-23T09:04:15Z</time>
      </trkpt>
      <trkpt lat="49.88768" lon="2.34337">
        <ele>25</ele>
        <time>2014-11-23T09:04:26Z</time>
      </trkpt>
      <trkpt lat="49.88782" lon="2.34321">
        <ele>25</ele>
        <time>2014-11-23T09:04:42Z</time>
      </trkpt>
      <trkpt lat="49.8879" lon="2.34313">
        <ele>24</ele>
        <time>2014-11-23T09:04:50Z</time>
      </trkpt>
      <trkpt lat="49.88797" lon="2.34302">
        <ele>25</ele>
        <time>2014-11-23T09:04:59Z</time>
      </trkpt>
      <trkpt lat="49.88805" lon="2.3429">
        <ele>28</ele>
        <time>2014-11-23T09:05:10Z</time>
      </trkpt>
      <trkpt lat="49.88818" lon="2.34288">
        <ele>25</ele>
        <time>2014-11-23T09:05:21Z</time>
      </trkpt>
      <trkpt lat="49.88832" lon="2.3428">
        <ele>23</ele>
        <time>2014-11-23T09:05:33Z</time>
      </trkpt>
      <trkpt lat="49.88841" lon="2.3427">
        <ele>28</ele>
        <time>2014-11-23T09:05:44Z</time>
      </trkpt>
      <trkpt lat="49.88851" lon="2.34263">
        <ele>29</ele>
        <time>2014-11-23T09:05:54Z</time>
      </trkpt>
      <trkpt lat="49.88869" lon="2.34248">
        <ele>35</ele>
        <time>2014-11-23T09:06:11Z</time>
      </trkpt>
      <trkpt lat="49.88875" lon="2.34245">
        <ele>32</ele>
        <time>2014-11-23T09:06:17Z</time>
      </trkpt>
      <trkpt lat="49.88891" lon="2.34232">
        <ele>30</ele>
        <time>2014-11-23T09:06:33Z</time>
      </trkpt>
      <trkpt lat="49.88897" lon="2.34226">
        <ele>31</ele>
        <time>2014-11-23T09:06:38Z</time>
      </trkpt>
      <trkpt lat="49.88908" lon="2.34217">
        <ele>28</ele>
        <time>2014-11-23T09:06:50Z</time>
      </trkpt>
      <trkpt lat="49.88917" lon="2.34208">
        <ele>26</ele>
        <time>2014-11-23T09:07:00Z</time>
      </trkpt>
      <trkpt lat="49.88927" lon="2.34185">
        <ele>28</ele>
        <time>2014-11-23T09:07:17Z</time>
      </trkpt>
      <trkpt lat="49.88937" lon="2.34168">
        <ele>34</ele>
        <time>2014-11-23T09:07:30Z</time>
      </trkpt>
      <trkpt lat="49.88939" lon="2.34162">
        <ele>36</ele>
        <time>2014-11-23T09:07:34Z</time>
      </trkpt>
      <trkpt lat="49.88952" lon="2.34149">
        <ele>35</ele>
        <time>2014-11-23T09:07:48Z</time>
      </trkpt>
      <trkpt lat="49.8896" lon="2.34144">
        <ele>33</ele>
        <time>2014-11-23T09:07:56Z</time>
      </trkpt>
      <trkpt lat="49.8897" lon="2.34133">
        <ele>34</ele>
        <time>2014-11-23T09:08:06Z</time>
      </trkpt>
      <trkpt lat="49.88984" lon="2.34124">
        <ele>28</ele>
        <time>2014-11-23T09:08:17Z</time>
      </trkpt>
      <trkpt lat="49.89003" lon="2.34118">
        <ele>26</ele>
        <time>2014-11-23T09:08:34Z</time>
      </trkpt>
      <trkpt lat="49.89009" lon="2.34117">
        <ele>25</ele>
        <time>2014-11-23T09:08:39Z</time>
      </trkpt>
      <trkpt lat="49.89019" lon="2.3411">
        <ele>31</ele>
        <time>2014-11-23T09:08:50Z</time>
      </trkpt>
      <trkpt lat="49.89036" lon="2.34106">
        <ele>24</ele>
        <time>2014-11-23T09:09:05Z</time>
      </trkpt>
      <trkpt lat="49.89046" lon="2.34099">
        <ele>23</ele>
        <time>2014-11-23T09:09:14Z</time>
      </trkpt>
      <trkpt lat="49.89057" lon="2.34094">
        <ele>27</ele>
        <time>2014-11-23T09:09:24Z</time>
      </trkpt>
      <trkpt lat="49.89072" lon="2.34091">
        <ele>26</ele>
        <time>2014-11-23T09:09:38Z</time>
      </trkpt>
      <trkpt lat="49.89079" lon="2.34087">
        <ele>26</ele>
        <time>2014-11-23T09:09:45Z</time>
      </trkpt>
      <trkpt lat="49.8909" lon="2.3408">
        <ele>24</ele>
        <time>2014-11-23T09:09:57Z</time>
      </trkpt>
      <trkpt lat="49.891" lon="2.34073">
        <ele>26</ele>
        <time>2014-11-23T09:10:08Z</time>
      </trkpt>
      <trkpt lat="49.89109" lon="2.34063">
        <ele>25</ele>
        <time>2014-11-23T09:10:18Z</time>
      </trkpt>
      <trkpt lat="49.89117" lon="2.34051">
        <ele>25</ele>
        <time>2014-11-23T09:10:29Z</time>
      </trkpt>
      <trkpt lat="49.89125" lon="2.34038">
        <ele>26</ele>
        <time>2014-11-23T09:10:40Z</time>
      </trkpt>
      <trkpt lat="49.89135" lon="2.34026">
        <ele>26</ele>
        <time>2014-11-23T09:10:51Z</time>
      </trkpt>
      <trkpt lat="49.89143" lon="2.34014">
        <ele>25</ele>
        <time>2014-11-23T09:11:02Z</time>
      </trkpt>
      <trkpt lat="49.89154" lon="2.33999">
        <ele>24</ele>
        <time>2014-11-23T09:11:15Z</time>
      </trkpt>
      <trkpt lat="49.89163" lon="2.33992">
        <ele>26</ele>
        <time>2014-11-23T09:11:24Z</time>
      </trkpt>
      <trkpt lat="49.89171" lon="2.33981">
        <ele>28</ele>
        <time>2014-11-23T09:11:35Z</time>
      </trkpt>
      <trkpt lat="49.89182" lon="2.33971">
        <ele>25</ele>
        <time>2014-11-23T09:11:47Z</time>
      </trkpt>
      <trkpt lat="49.89193" lon="2.33964">
        <ele>26</ele>
        <time>2014-11-23T09:11:57Z</time>
      </trkpt>
      <trkpt lat="49.89202" lon="2.33954">
        <ele>25</ele>
        <time>2014-11-23T09:12:08Z</time>
      </trkpt>
      <trkpt lat="49.89211" lon="2.33941">
        <ele>26</ele>
        <time>2014-11-23T09:12:19Z</time>
      </trkpt>
      <trkpt lat="49.89224" lon="2.33923">
        <ele>27</ele>
        <time>2014-11-23T09:12:36Z</time>
      </trkpt>
      <trkpt lat="49.89236" lon="2.33911">
        <ele>28</ele>
        <time>2014-11-23T09:12:48Z</time>
      </trkpt>
      <trkpt lat="49.89245" lon="2.33903">
        <ele>28</ele>
        <time>2014-11-23T09:12:55Z</time>
      </trkpt>
      <trkpt lat="49.89255" lon="2.33892">
        <ele>21</ele>
        <time>2014-11-23T09:13:07Z</time>
      </trkpt>
      <trkpt lat="49.89265" lon="2.33881">
        <ele>24</ele>
        <time>2014-11-23T09:13:19Z</time>
      </trkpt>
      <trkpt lat="49.8927" lon="2.33876">
        <ele>22</ele>
        <time>2014-11-23T09:13:25Z</time>
      </trkpt>
      <trkpt lat="49.8928" lon="2.33863">
        <ele>22</ele>
        <time>2014-11-23T09:13:36Z</time>
      </trkpt>
      <trkpt lat="49.89291" lon="2.33851">
        <ele>23</ele>
        <time>2014-11-23T09:13:47Z</time>
      </trkpt>
      <trkpt lat="49.89301" lon="2.33839">
        <ele>24</ele>
        <time>2014-11-23T09:13:58Z</time>
      </trkpt>
      <trkpt lat="49.8931" lon="2.3383">
        <ele>23</ele>
        <time>2014-11-23T09:14:09Z</time>
      </trkpt>
      <trkpt lat="49.89322" lon="2.33823">
        <ele>24</ele>
        <time>2014-11-23T09:14:20Z</time>
      </trkpt>
      <trkpt lat="49.89332" lon="2.33812">
        <ele>24</ele>
        <time>2014-11-23T09:14:31Z</time>
      </trkpt>
      <trkpt lat="49.89342" lon="2.33804">
        <ele>21</ele>
        <time>2014-11-23T09:14:42Z</time>
      </trkpt>
      <trkpt lat="49.89353" lon="2.33796">
        <ele>21</ele>
        <time>2014-11-23T09:14:53Z</time>
      </trkpt>
      <trkpt lat="49.89363" lon="2.33787">
        <ele>22</ele>
        <time>2014-11-23T09:15:04Z</time>
      </trkpt>
      <trkpt lat="49.89373" lon="2.3378">
        <ele>22</ele>
        <time>2014-11-23T09:15:16Z</time>
      </trkpt>
      <trkpt lat="49.89388" lon="2.33764">
        <ele>21</ele>
        <time>2014-11-23T09:15:33Z</time>
      </trkpt>
      <trkpt lat="49.89395" lon="2.33761">
        <ele>23</ele>
        <time>2014-11-23T09:15:38Z</time>
      </trkpt>
      <trkpt lat="49.89407" lon="2.33752">
        <ele>24</ele>
        <time>2014-11-23T09:15:48Z</time>
      </trkpt>
      <trkpt lat="49.89415" lon="2.33741">
        <ele>23</ele>
        <time>2014-11-23T09:15:59Z</time>
      </trkpt>
      <trkpt lat="49.89421" lon="2.33731">
        <ele>20</ele>
        <time>2014-11-23T09:16:10Z</time>
      </trkpt>
      <trkpt lat="49.89431" lon="2.33719">
        <ele>21</ele>
        <time>2014-11-23T09:16:21Z</time>
      </trkpt>
      <trkpt lat="49.8944" lon="2.33705">
        <ele>23</ele>
        <time>2014-11-23T09:16:32Z</time>
      </trkpt>
      <trkpt lat="49.89448" lon="2.33691">
        <ele>23</ele>
        <time>2014-11-23T09:16:43Z</time>
      </trkpt>
      <trkpt lat="49.89457" lon="2.33677">
        <ele>23</ele>
        <time>2014-11-23T09:16:54Z</time>
      </trkpt>
      <trkpt lat="49.89466" lon="2.33665">
        <ele>22</ele>
        <time>2014-11-23T09:17:05Z</time>
      </trkpt>
      <trkpt lat="49.89475" lon="2.33653">
        <ele>23</ele>
        <time>2014-11-23T09:17:16Z</time>
      </trkpt>
      <trkpt lat="49.89483" lon="2.33641">
        <ele>24</ele>
        <time>2014-11-23T09:17:27Z</time>
      </trkpt>
      <trkpt lat="49.89491" lon="2.33628">
        <ele>25</ele>
        <time>2014-11-23T09:17:38Z</time>
      </trkpt>
      <trkpt lat="49.895" lon="2.33615">
        <ele>24</ele>
        <time>2014-11-23T09:17:49Z</time>
      </trkpt>
      <trkpt lat="49.89507" lon="2.33603">
        <ele>23</ele>
        <time>2014-11-23T09:18:00Z</time>
      </trkpt>
      <trkpt lat="49.89515" lon="2.3359">
        <ele>24</ele>
        <time>2014-11-23T09:18:11Z</time>
      </trkpt>
      <trkpt lat="49.89523" lon="2.33578">
        <ele>23</ele>
        <time>2014-11-23T09:18:22Z</time>
      </trkpt>
      <trkpt lat="49.89531" lon="2.33566">
        <ele>23</ele>
        <time>2014-11-23T09:18:33Z</time>
      </trkpt>
      <trkpt lat="49.89537" lon="2.33554">
        <ele>22</ele>
        <time>2014-11-23T09:18:44Z</time>
      </trkpt>
      <trkpt lat="49.89546" lon="2.33539">
        <ele>24</ele>
        <time>2014-11-23T09:18:57Z</time>
      </trkpt>
      <trkpt lat="49.89553" lon="2.3353">
        <ele>25</ele>
        <time>2014-11-23T09:19:06Z</time>
      </trkpt>
      <trkpt lat="49.89562" lon="2.33519">
        <ele>23</ele>
        <time>2014-11-23T09:19:17Z</time>
      </trkpt>
      <trkpt lat="49.89571" lon="2.33506">
        <ele>23</ele>
        <time>2014-11-23T09:19:28Z</time>
      </trkpt>
      <trkpt lat="49.89578" lon="2.33492">
        <ele>24</ele>
        <time>2014-11-23T09:19:39Z</time>
      </trkpt>
      <trkpt lat="49.89581" lon="2.33474">
        <ele>26</ele>
        <time>2014-11-23T09:19:52Z</time>
      </trkpt>
      <trkpt lat="49.89586" lon="2.33462">
        <ele>26</ele>
        <time>2014-11-23T09:20:01Z</time>
      </trkpt>
      <trkpt lat="49.89594" lon="2.33452">
        <ele>24</ele>
        <time>2014-11-23T09:20:12Z</time>
      </trkpt>
      <trkpt lat="49.89602" lon="2.3344">
        <ele>23</ele>
        <time>2014-11-23T09:20:23Z</time>
      </trkpt>
      <trkpt lat="49.89606" lon="2.33425">
        <ele>20</ele>
        <time>2014-11-23T09:20:34Z</time>
      </trkpt>
      <trkpt lat="49.89613" lon="2.33413">
        <ele>20</ele>
        <time>2014-11-23T09:20:45Z</time>
      </trkpt>
      <trkpt lat="49.89618" lon="2.33396">
        <ele>21</ele>
        <time>2014-11-23T09:20:56Z</time>
      </trkpt>
      <trkpt lat="49.89624" lon="2.33379">
        <ele>23</ele>
        <time>2014-11-23T09:21:07Z</time>
      </trkpt>
      <trkpt lat="49.89632" lon="2.33365">
        <ele>23</ele>
        <time>2014-11-23T09:21:18Z</time>
      </trkpt>
      <trkpt lat="49.89642" lon="2.33354">
        <ele>22</ele>
        <time>2014-11-23T09:21:29Z</time>
      </trkpt>
      <trkpt lat="49.89652" lon="2.33347">
        <ele>22</ele>
        <time>2014-11-23T09:21:40Z</time>
      </trkpt>
      <trkpt lat="49.89662" lon="2.33344">
        <ele>23</ele>
        <time>2014-11-23T09:21:51Z</time>
      </trkpt>
      <trkpt lat="49.89673" lon="2.33336">
        <ele>23</ele>
        <time>2014-11-23T09:22:02Z</time>
      </trkpt>
      <trkpt lat="49.89685" lon="2.33325">
        <ele>25</ele>
        <time>2014-11-23T09:22:13Z</time>
      </trkpt>
      <trkpt lat="49.89697" lon="2.33318">
        <ele>24</ele>
        <time>2014-11-23T09:22:26Z</time>
      </trkpt>
      <trkpt lat="49.89703" lon="2.33313">
        <ele>21</ele>
        <time>2014-11-23T09:22:35Z</time>
      </trkpt>
      <trkpt lat="49.89713" lon="2.33305">
        <ele>22</ele>
        <time>2014-11-23T09:22:47Z</time>
      </trkpt>
      <trkpt lat="49.89719" lon="2.33299">
        <ele>19</ele>
        <time>2014-11-23T09:22:57Z</time>
      </trkpt>
      <trkpt lat="49.89728" lon="2.33291">
        <ele>18</ele>
        <time>2014-11-23T09:23:08Z</time>
      </trkpt>
      <trkpt lat="49.89744" lon="2.3328">
        <ele>20</ele>
        <time>2014-11-23T09:23:23Z</time>
      </trkpt>
      <trkpt lat="49.89751" lon="2.33275">
        <ele>20</ele>
        <time>2014-11-23T09:23:32Z</time>
      </trkpt>
      <trkpt lat="49.89764" lon="2.33267">
        <ele>24</ele>
        <time>2014-11-23T09:23:43Z</time>
      </trkpt>
      <trkpt lat="49.89775" lon="2.33262">
        <ele>29</ele>
        <time>2014-11-23T09:23:53Z</time>
      </trkpt>
      <trkpt lat="49.89785" lon="2.33256">
        <ele>30</ele>
        <time>2014-11-23T09:24:03Z</time>
      </trkpt>
      <trkpt lat="49.89797" lon="2.33249">
        <ele>27</ele>
        <time>2014-11-23T09:24:14Z</time>
      </trkpt>
      <trkpt lat="49.89807" lon="2.33241">
        <ele>27</ele>
        <time>2014-11-23T09:24:25Z</time>
      </trkpt>
      <trkpt lat="49.89817" lon="2.33234">
        <ele>28</ele>
        <time>2014-11-23T09:24:36Z</time>
      </trkpt>
      <trkpt lat="49.89825" lon="2.33225">
        <ele>31</ele>
        <time>2014-11-23T09:24:47Z</time>
      </trkpt>
      <trkpt lat="49.89833" lon="2.3321">
        <ele>31</ele>
        <time>2014-11-23T09:24:58Z</time>
      </trkpt>
      <trkpt lat="49.89836" lon="2.3319">
        <ele>31</ele>
        <time>2014-11-23T09:25:09Z</time>
      </trkpt>
      <trkpt lat="49.89838" lon="2.33169">
        <ele>31</ele>
        <time>2014-11-23T09:25:20Z</time>
      </trkpt>
      <trkpt lat="49.8984" lon="2.33151">
        <ele>29</ele>
        <time>2014-11-23T09:25:31Z</time>
      </trkpt>
      <trkpt lat="49.89842" lon="2.3313">
        <ele>31</ele>
        <time>2014-11-23T09:25:42Z</time>
      </trkpt>
      <trkpt lat="49.89849" lon="2.33112">
        <ele>33</ele>
        <time>2014-11-23T09:25:53Z</time>
      </trkpt>
      <trkpt lat="49.89848" lon="2.33089">
        <ele>35</ele>
        <time>2014-11-23T09:26:05Z</time>
      </trkpt>
      <trkpt lat="49.8985" lon="2.33077">
        <ele>32</ele>
        <time>2014-11-23T09:26:15Z</time>
      </trkpt>
      <trkpt lat="49.89851" lon="2.33056">
        <ele>34</ele>
        <time>2014-11-23T09:26:26Z</time>
      </trkpt>
      <trkpt lat="49.89849" lon="2.33031">
        <ele>35</ele>
        <time>2014-11-23T09:26:39Z</time>
      </trkpt>
      <trkpt lat="49.89852" lon="2.33012">
        <ele>32</ele>
        <time>2014-11-23T09:26:53Z</time>
      </trkpt>
      <trkpt lat="49.89854" lon="2.32989">
        <ele>33</ele>
        <time>2014-11-23T09:27:06Z</time>
      </trkpt>
      <trkpt lat="49.89856" lon="2.32982">
        <ele>33</ele>
        <time>2014-11-23T09:27:10Z</time>
      </trkpt>
      <trkpt lat="49.89857" lon="2.32961">
        <ele>35</ele>
        <time>2014-11-23T09:27:22Z</time>
      </trkpt>
      <trkpt lat="49.89858" lon="2.32944">
        <ele>36</ele>
        <time>2014-11-23T09:27:32Z</time>
      </trkpt>
      <trkpt lat="49.8986" lon="2.32926">
        <ele>34</ele>
        <time>2014-11-23T09:27:43Z</time>
      </trkpt>
      <trkpt lat="49.89859" lon="2.32903">
        <ele>34</ele>
        <time>2014-11-23T09:27:55Z</time>
      </trkpt>
      <trkpt lat="49.89863" lon="2.32887">
        <ele>32</ele>
        <time>2014-11-23T09:28:05Z</time>
      </trkpt>
      <trkpt lat="49.8987" lon="2.32873">
        <ele>30</ele>
        <time>2014-11-23T09:28:16Z</time>
      </trkpt>
      <trkpt lat="49.89875" lon="2.32859">
        <ele>27</ele>
        <time>2014-11-23T09:28:27Z</time>
      </trkpt>
      <trkpt lat="49.89881" lon="2.32847">
        <ele>28</ele>
        <time>2014-11-23T09:28:38Z</time>
      </trkpt>
      <trkpt lat="49.89888" lon="2.32835">
        <ele>29</ele>
        <time>2014-11-23T09:28:49Z</time>
      </trkpt>
      <trkpt lat="49.89894" lon="2.32819">
        <ele>29</ele>
        <time>2014-11-23T09:29:00Z</time>
      </trkpt>
      <trkpt lat="49.89901" lon="2.32816">
        <ele>27</ele>
        <time>2014-11-23T09:29:12Z</time>
      </trkpt>
      <trkpt lat="49.89906" lon="2.32819">
        <ele>26</ele>
        <time>2014-11-23T09:29:22Z</time>
      </trkpt>
      <trkpt lat="49.89909" lon="2.32819">
        <ele>24</ele>
        <time>2014-11-23T09:29:33Z</time>
      </trkpt>
      <trkpt lat="49.89914" lon="2.32822">
        <ele>24</ele>
        <time>2014-11-23T09:29:48Z</time>
      </trkpt>
    </trkseg>
  </trk>
</gpx>